[[{"header":{"parameterUnit":"m.s-1","parameterCategory":1,"la1":30.2991,"la2":30.254,"lo1":-89.0895,"lo2":-89.0444,"dy":0.0017,"dx":0.0017,"nx":28,"ny":28,"refTime":"2023-03-21T21:00:00:Z","depth":0,"parameterNumber":2,"parameterNumberName":"U-component_of_WINDS"},"data":[0,0,0,0,0,0,0,0,0,0,0,0,0,0,0,0,0,0,0,0,0,0,0,0,0,0,0,0,0,0,0,0,0,0,0,0,0,0,0,0,0,0,0,0,0,0,0,0,0,0,0,0,0,0,0,0,0,0,-1.644,-1.6439,0,-1.6429,-1.6429,-1.6429,-1.6423,-1.6423,-1.6423,-1.6423,-1.641,-1.641,-1.641,0,0,0,0,0,0,0,0,0,0,0,0,0,-1.6454,-1.6454,-1.644,-1.6439,-1.6439,-1.6429,-1.6429,-1.6429,-1.6423,-1.6423,-1.6423,-1.6423,-1.6411,-1.641,-1.641,0,0,0,0,0,0,0,0,0,0,0,0,0,-1.6446,-1.6454,-1.644,-1.6435,-1.6435,-1.6429,-1.6429,-1.6429,-1.6423,-1.6423,-1.6423,-1.6423,-1.6411,-1.641,-1.641,-1.6408,0,0,-1.6408,-1.6408,0,0,0,0,0,0,0,0,-1.6447,-1.6446,-1.6436,-1.6435,-1.6435,-1.6427,-1.643,-1.6422,-1.6423,-1.6427,-1.6423,-1.6423,-1.6416,-1.6415,-1.6413,-1.6407,-1.6406,-1.6408,-1.6408,-1.6408,-1.6408,0,0,0,0,0,0,0,-1.6447,-1.6446,-1.6435,-1.6436,-1.6435,-1.6434,-1.6432,-1.6428,-1.6422,-1.6427,-1.6426,-1.6425,-1.6416,-1.6414,-1.6413,-1.6406,-1.6408,-1.6408,-1.6408,-1.6407,-1.64,-1.64,0,0,0,0,0,0,-1.6449,-1.6447,-1.6436,-1.6435,-1.6441,-1.6433,-1.6432,-1.643,-1.6422,-1.6421,-1.6425,-1.6425,-1.6414,-1.6413,-1.6412,-1.641,-1.6408,-1.6407,-1.6407,-1.64,-1.64,-1.64,0,0,0,0,0,0,-1.6449,-1.6448,-1.6436,-1.6441,-1.6439,-1.6433,-1.6431,-1.6429,-1.6427,-1.6421,-1.642,-1.6424,-1.6414,-1.6413,-1.6409,-1.6409,-1.6407,-1.6407,-1.64,-1.64,-1.64,-1.6405,0,0,0,0,0,0,-1.6449,-1.6448,-1.6447,-1.6441,-1.6439,-1.6433,-1.6431,-1.6429,-1.6427,-1.6426,-1.642,-1.6418,-1.6414,-1.641,-1.6409,-1.6409,-1.6406,-1.6399,-1.64,-1.64,-1.6405,-1.6405,-1.6406,0,0,0,0,0,-1.645,-1.6448,-1.6447,-1.6445,-1.6437,-1.6433,-1.6432,-1.6428,-1.6427,-1.6426,-1.6422,-1.6419,-1.641,-1.641,-1.6408,-1.6408,-1.6399,-1.64,-1.64,-1.6404,-1.6405,-1.6406,0,0,0,0,0,0,-1.6453,-1.6447,-1.6445,-1.6441,-1.6438,-1.6432,-1.643,-1.6428,-1.6424,-1.6424,-1.6419,-1.6417,-1.6414,-1.6411,-1.6411,-1.6407,-1.6404,-1.6404,-1.6409,-1.6409,-1.641,-1.641,-1.6406,0,0,0,0,0,-1.6453,-1.6451,-1.6445,-1.6442,-1.6441,-1.6436,-1.6434,-1.6431,-1.6427,-1.6425,-1.6421,-1.6417,-1.6414,-1.6411,-1.6408,-1.6405,-1.6404,-1.6404,-1.6405,-1.6405,-1.6405,-1.6404,-1.6404,-1.64,-1.64,-1.64,0,0,-1.6454,-1.645,-1.6448,-1.6443,-1.644,-1.6437,-1.6435,-1.6432,-1.643,-1.6425,-1.6421,-1.6418,-1.6414,-1.6411,-1.6409,-1.6408,-1.6406,-1.6405,-1.6406,-1.6405,-1.6404,-1.6405,-1.6405,-1.64,-1.64,-1.64,0,0,-1.6453,-1.645,-1.6448,-1.6445,-1.6441,-1.6438,-1.6438,-1.6433,-1.6431,-1.6428,-1.6425,-1.6422,-1.6416,-1.6413,-1.6411,-1.6412,-1.6409,-1.6411,-1.6413,-1.6412,-1.6413,-1.6413,-1.6414,-1.6414,-1.6411,-1.6411,-1.6411,0,-1.6453,-1.6449,-1.6446,-1.6444,-1.6442,-1.6439,-1.6437,-1.6435,-1.6429,-1.6428,-1.6427,-1.6421,-1.6417,-1.6414,-1.6415,-1.6413,-1.6413,-1.6411,-1.6413,-1.6413,-1.6413,-1.6414,-1.6414,-1.6411,-1.6411,-1.6411,-1.6411,0,-1.6451,-1.6448,-1.6447,-1.6443,-1.6441,-1.6439,-1.6436,-1.6435,-1.6433,-1.643,-1.6428,-1.6424,-1.642,-1.6419,-1.6417,-1.6416,-1.6416,-1.6414,-1.6412,-1.6414,-1.6415,-1.6415,-1.6412,-1.6411,-1.6411,-1.6411,0,0,-1.6449,-1.6446,-1.6445,-1.6444,-1.6441,-1.6439,-1.6437,-1.6434,-1.6433,-1.6431,-1.6429,-1.6425,-1.6424,-1.6422,-1.6419,-1.6419,-1.6421,-1.6417,-1.6417,-1.6418,-1.6421,-1.6422,-1.6422,-1.642,-1.642,-1.642,-1.6421,0,-1.6448,-1.6445,-1.6443,-1.6441,-1.6439,-1.6437,-1.6436,-1.6434,-1.6432,-1.6431,-1.6429,-1.6426,-1.6425,-1.6424,-1.6423,-1.6421,-1.6421,-1.6421,-1.6418,-1.6418,-1.6418,-1.6422,-1.6423,-1.6424,-1.6421,-1.6421,-1.6421,0,-1.6445,-1.6444,-1.6442,-1.644,-1.6439,-1.6438,-1.6436,-1.6434,-1.6433,-1.6431,-1.643,-1.6428,-1.6427,-1.6426,-1.6424,-1.6424,-1.6423,-1.6422,-1.6422,-1.6421,-1.6419,-1.6421,-1.6425,-1.6425,-1.6422,-1.6422,-1.6422,0,-1.6445,-1.6442,-1.6441,-1.644,-1.6438,-1.6437,-1.6436,-1.6435,-1.6434,-1.6432,-1.6432,-1.643,-1.6429,-1.6427,-1.6425,-1.6425,-1.6424,-1.6423,-1.6423,-1.6423,-1.6422,-1.6422,-1.6426,-1.6423,-1.6423,-1.6423,-1.6423,0,-1.6443,-1.6442,-1.6441,-1.644,-1.6439,-1.6438,-1.6437,-1.6436,-1.6435,-1.6434,-1.6432,-1.6431,-1.6429,-1.6428,-1.6427,-1.6426,-1.6425,-1.6425,-1.6424,-1.6424,-1.6424,-1.6423,-1.6423,-1.6423,-1.6423,-1.6423,-1.6423,0,-1.6442,-1.6441,-1.644,-1.6439,-1.6439,-1.6438,-1.6437,-1.6436,-1.6435,-1.6434,-1.6434,-1.6433,-1.6432,-1.643,-1.6428,-1.6427,-1.6427,-1.6426,-1.6428,-1.6427,-1.6428,-1.6428,-1.643,-1.643,-1.6428,-1.6428,-1.6428,0,-1.6441,-1.644,-1.6439,-1.6439,-1.6438,-1.6438,-1.6437,-1.6436,-1.6436,-1.6435,-1.6435,-1.6434,-1.6433,-1.6432,-1.643,-1.6429,-1.6429,-1.643,-1.6428,-1.6429,-1.6429,-1.6428,-1.6429,-1.6429,-1.6429,-1.6429,-1.6429,0,-1.6438,-1.6439,-1.6438,-1.6438,-1.6438,-1.6437,-1.6437,-1.6437,-1.6436,-1.6435,-1.6435,-1.6435,-1.6434,-1.6433,-1.6433,-1.6432,-1.6431,-1.643,-1.643,-1.643,-1.6431,-1.6431,-1.6428,-1.643,-1.643,-1.643,-1.643,-1.643,-1.6437,-1.6437,-1.6437,-1.6436,-1.6436,-1.6437,-1.6436,-1.6436,-1.6436,-1.6435,-1.6435,-1.6435,-1.6435,-1.6434,-1.6434,-1.6434,-1.6433,-1.6433,-1.6433,-1.6433,-1.6433,-1.6432,-1.6433,-1.6433,-1.6433,-1.6433,-1.6433,0,-1.6435,-1.6435,-1.6435,-1.6435,-1.6435,-1.6436,-1.6436,-1.6436,-1.6436,-1.6436,-1.6436,-1.6436,-1.6436,-1.6435,-1.6435,-1.6436,-1.6435,-1.6436,-1.6435,-1.6435,-1.6433,-1.6433,-1.6436,-1.6436,-1.6436,-1.6436,-1.6436,-1.6436,-1.6433,-1.6433,-1.6434,-1.6434,-1.6434,-1.6435,-1.6435,-1.6435,-1.6435,-1.6436,-1.6436,-1.6436,-1.6436,-1.6437,-1.6437,-1.6437,-1.6437,-1.6437,-1.6437,-1.6435,-1.6435,-1.6435,-1.6435,-1.6438,-1.6438,-1.6439,-1.6439,-1.6439]},{"header":{"parameterUnit":"m.s-1","parameterCategory":1,"la1":30.2991,"la2":30.254,"lo1":-89.0895,"lo2":-89.0444,"dy":0.0017,"dx":0.0017,"nx":28,"ny":28,"refTime":"2023-03-21T21:00:00:Z","depth":0,"parameterNumber":3,"parameterNumberName":"V-component_of_WINDS"},"data":[0,0,0,0,0,0,0,0,0,0,0,0,0,0,0,0,0,0,0,0,0,0,0,0,0,0,0,0,0,0,0,0,0,0,0,0,0,0,0,0,0,0,0,0,0,0,0,0,0,0,0,0,0,0,0,0,0,0,3.3473,3.3471,0,3.3349,3.3348,3.3346,3.3329,3.333,3.3332,3.3333,3.3201,3.3197,3.3192,0,0,0,0,0,0,0,0,0,0,0,0,0,3.3689,3.3685,3.3473,3.3471,3.347,3.335,3.3348,3.3346,3.3329,3.3331,3.3332,3.3333,3.3203,3.3197,3.3192,0,0,0,0,0,0,0,0,0,0,0,0,0,3.3583,3.3684,3.3473,3.3447,3.3443,3.335,3.3348,3.3346,3.3329,3.3331,3.3332,3.3334,3.3204,3.3198,3.3191,3.3113,0,0,3.317,3.3167,0,0,0,0,0,0,0,0,3.3589,3.3575,3.3452,3.3449,3.3444,3.3357,3.3376,3.3268,3.3328,3.3372,3.3333,3.3335,3.3251,3.324,3.3213,3.3107,3.3102,3.3169,3.3165,3.3162,3.316,0,0,0,0,0,0,0,3.3597,3.3581,3.3424,3.345,3.3446,3.344,3.3427,3.3355,3.3303,3.3368,3.3367,3.3353,3.3249,3.322,3.321,3.31,3.3169,3.3163,3.3159,3.3156,3.2925,3.2923,0,0,0,0,0,0,3.361,3.3587,3.3428,3.342,3.3523,3.3435,3.342,3.3383,3.3304,3.3294,3.3351,3.3352,3.3231,3.3218,3.3205,3.311,3.3162,3.3156,3.3152,3.2927,3.2924,3.2922,0,0,0,0,0,0,3.3614,3.3596,3.3433,3.3503,3.3482,3.3429,3.3388,3.338,3.335,3.3291,3.3281,3.3332,3.3232,3.3215,3.3137,3.3106,3.3153,3.3146,3.2929,3.2926,3.2923,3.2919,0,0,0,0,0,0,3.3621,3.3597,3.3568,3.3503,3.3478,3.3368,3.3386,3.3376,3.3339,3.3339,3.327,3.326,3.3232,3.3147,3.313,3.3097,3.3141,3.2932,3.2928,3.2924,3.2922,3.2916,3.2912,0,0,0,0,0,3.3628,3.3571,3.3567,3.3548,3.3441,3.3366,3.3352,3.3322,3.3337,3.3307,3.3269,3.3262,3.3112,3.314,3.312,3.3084,3.2933,3.2929,3.2924,3.2924,3.2918,3.2912,0,0,0,0,0,0,3.3632,3.3562,3.3557,3.3477,3.3428,3.3363,3.3324,3.3316,3.326,3.3263,3.3227,3.3211,3.3135,3.3101,3.3134,3.3005,3.3024,3.3015,3.303,3.3023,3.3018,3.3028,3.3135,0,0,0,0,0,3.3624,3.3571,3.3511,3.3446,3.3422,3.3378,3.3343,3.3325,3.3272,3.3251,3.3207,3.3155,3.3096,3.3058,3.3,3.2917,3.2901,3.2882,3.2877,3.2874,3.2867,3.2821,3.2812,3.2907,3.2907,3.2907,0,0,3.3606,3.3561,3.3529,3.3446,3.3406,3.335,3.336,3.33,3.3258,3.3241,3.3166,3.3132,3.3071,3.299,3.2953,3.296,3.2837,3.2868,3.2865,3.286,3.2815,3.2806,3.2798,3.2904,3.2904,3.2905,0,0,3.3545,3.3506,3.3448,3.3408,3.3348,3.3319,3.3305,3.3242,3.3219,3.3143,3.313,3.3078,3.2977,3.2935,3.29,3.2824,3.2816,3.2806,3.2779,3.2735,3.2728,3.2721,3.2694,3.2685,3.2799,3.2799,3.2799,0,3.353,3.3447,3.3418,3.336,3.3323,3.3308,3.3248,3.321,3.3134,3.3108,3.3118,3.2992,3.295,3.2859,3.2841,3.2813,3.2796,3.2814,3.2731,3.2724,3.2717,3.2692,3.2682,3.2798,3.2798,3.2798,3.2798,0,3.3432,3.3374,3.3334,3.3263,3.3222,3.3163,3.3125,3.3086,3.3072,3.3041,3.2964,3.2913,3.2845,3.2822,3.2806,3.2729,3.2736,3.2739,3.2757,3.2708,3.2684,3.2673,3.2797,3.2797,3.2798,3.2798,0,0,3.3369,3.3285,3.327,3.3238,3.3171,3.3126,3.3066,3.3001,3.2969,3.2917,3.2866,3.2781,3.2784,3.2744,3.2723,3.2684,3.2628,3.2692,3.269,3.2683,3.2542,3.2541,3.253,3.2623,3.2621,3.2619,3.2547,0,3.3301,3.3197,3.3169,3.3079,3.3026,3.301,3.2958,3.2911,3.2881,3.283,3.2796,3.2737,3.2745,3.2721,3.2682,3.2644,3.26,3.2648,3.2574,3.2572,3.2591,3.2517,3.2515,3.245,3.2537,3.2535,3.2534,0,3.3208,3.3156,3.3062,3.3003,3.2979,3.2933,3.2873,3.2824,3.277,3.2751,3.2707,3.269,3.2626,3.2647,3.2558,3.2592,3.256,3.2537,3.2533,3.2526,3.2551,3.2508,3.2428,3.2419,3.2519,3.252,3.2521,0,3.3174,3.308,3.3012,3.2984,3.2913,3.2882,3.285,3.2798,3.2761,3.2707,3.2683,3.2622,3.2588,3.2541,3.2507,3.2525,3.2421,3.2439,3.2403,3.2404,3.2382,3.2384,3.2297,3.236,3.236,3.2361,3.2361,0,3.3101,3.3044,3.2995,3.2953,3.2889,3.2857,3.2794,3.2762,3.2715,3.2666,3.2648,3.2601,3.256,3.2508,3.2481,3.2412,3.2396,3.2378,3.2372,3.238,3.2383,3.2359,3.2363,3.2358,3.2359,3.2359,3.236,0,3.3052,3.3017,3.2942,3.2881,3.2865,3.282,3.2768,3.2726,3.2695,3.2633,3.2617,3.2568,3.2506,3.2468,3.2388,3.2371,3.2295,3.2289,3.2314,3.2311,3.2278,3.2282,3.2173,3.2157,3.223,3.2229,3.2229,0,3.3008,3.2964,3.29,3.2867,3.2836,3.2782,3.2745,3.2712,3.2674,3.2609,3.2575,3.2512,3.246,3.2361,3.2318,3.2257,3.2251,3.2217,3.2242,3.2252,3.2251,3.2255,3.2251,3.2213,3.2213,3.2212,3.2212,0,3.2935,3.292,3.2869,3.2811,3.2769,3.2721,3.2674,3.2647,3.2606,3.2564,3.2501,3.2461,3.2381,3.2319,3.2254,3.222,3.2209,3.2204,3.2193,3.2201,3.2218,3.221,3.2304,3.2207,3.2207,3.2208,3.2208,3.2208,3.2888,3.2848,3.2798,3.2741,3.2702,3.2659,3.2617,3.2582,3.253,3.2464,3.2447,3.2381,3.2328,3.224,3.2205,3.2152,3.2157,3.2141,3.2136,3.2133,3.2133,3.2226,3.214,3.214,3.214,3.2141,3.2141,0,3.2814,3.2781,3.273,3.2665,3.2621,3.2615,3.2563,3.2525,3.2469,3.2421,3.2371,3.2299,3.2238,3.2191,3.2129,3.2096,3.2089,3.208,3.2083,3.2075,3.2132,3.2148,3.2087,3.2087,3.2087,3.2087,3.2087,3.2087,3.2771,3.2705,3.2684,3.2599,3.2565,3.2502,3.2473,3.2432,3.2394,3.2315,3.2266,3.2236,3.2188,3.2122,3.2067,3.2054,3.2032,3.2025,3.2012,3.2065,3.2071,3.2077,3.2092,3.202,3.202,3.196,3.1959,3.1959]}]]